Погода в Амге

Погода в Амге : погода сейчас, прогноз погоды и архив. Всё, что Вы хотите узнать о погоде в Амге!

Хотите узнать прогноз погоды в Амге? Тогда Вам сюда: Погода в Амге

Поиск расширенной информации на нашем сайте:

Другие новости

Новости СМИ2

Главная страница сайта

Новости сайта

03.07.2017

Напоминаем, что на нашем специализированном сайте Метеоцентр.Азия вы можете получить высокодетализированные автоматические прогнозы погоды по пунктам России, СНГ и мира в авиационном формате (включающие направление и скорость ветра, видимость, явления погоды, количество и форму облачности, нижнюю и верхнюю границу облачности).

Рекомендуем: Кофе с собой тишинка территория кофе.

Погода в Амге - сегодня

Время (UTC), дата Ветер
(°,м/с) 
Видим.   Явления Облачность Т
(°С)
Тd
(°С)
f(%) Тe
(°С)
Pmin
(гПа)
dP
(гПа)
Po
(мм)
O2
(г/м3)
Тmin Tmax R s Состояние
почвы
06 17.02.18 210 (ЮЗ) 20000 м    6/0 верхняя 
[Ci fib]
-24.4 -28.4 69 -25  1021.3  -0.4  751  334           
09 17.02.18 300 (СЗ) 20000 м  слаб. снег  10/0 средняя, верхняя 
[Ac trans|Cs]
-27.6 -30.7 75 -28  1022.1  0.5  751  339           
15 17.02.18 230 (ЮЗ) 20000 м    3/0 верхняя 
[Ci fib]
-33.1 -36.7 70 -34  1022.8  -0.2  751  347           
18 17.02.18 190 (Ю) 20000 м    3/0 верхняя 
[Ci fib]
-36.2 -39.7 70 -37  1023.2  0.1  751  351           
21 17.02.18 тихо ()   20000 м    3/0 верхняя 
[Ci fib]
-38 -41.6 69 -38  1023.1  -0.3  751  354           
00 18.02.18 тихо ()   20000 м    10/0 верхняя 
[Ci fib]
-38.9 -42.5 68 -39  1023.3  0.2  751  355  -40.4      31  равномерный
сухой снег
100% 
03 18.02.18 080 (В) 20000 м  слаб. снег  10/0 верхняя 
[Cs]
-32.6 -36.2 70 -33  1022.1  -0.7  751  346           
06 18.02.18 080 (В) 20000 м  слаб. снег  10/0 средняя, верхняя 
[Ac As|Ci fib]
-27.9 -31.7 70 -29  1020.8  -0.9  750  339           
09 18.02.18 тихо ()   20000 м  {снег}  10/0 средняя, верхняя 
[Ac trans|Ci fib]
-29.1 -33 69 -29  1021.3  0.4  750  340           
15 18.02.18 тихо ()   20000 м  в посл. час снег  6/0 верхняя 
[Ci fib]
-35.2 -38.7 70 -35  1022.3  751  349           
18 18.02.18 230 (ЮЗ) 20000 м  {снег}  6/0 верхняя 
[Ci fib]
-36.4 -40.1 68 -37  1022.3  -0.1  751  351           
21 18.02.18 210 (ЮЗ) 20000 м    3/0 верхняя 
[Ci fib]
-41.2 -44.4 71 -42  1022.7  751  358           
03 19.02.18 тихо ()   4000 м  слаб. снег  10/0 средняя, верхняя 
[Ac trans|Cs]
-33.9 -37.5 70 -34  1021.5  -0.7  750  347           
06 19.02.18 тихо ()   10 км  слаб. снег  10/0 средняя, верхняя 
[Ac trans|Cs]
-30.9 -34.6 70 -31  1020.3  -0.9  750  343           
09 19.02.18 тихо ()   20000 м  {снег}  4/0 верхняя 
[Ci fib]
-32 -35.7 70 -32  1020.8  0.4  750  344           
15 19.02.18 тихо ()   20000 м    3/0 верхняя 
[Ci fib]
-41.2 -44.4 71 -41  1020.9  -0.8  749  358           
18 19.02.18 200 (Ю) 20000 м    3/0 верхняя 
[Ci fib]
-42.5 -45.6 72 -51  1020.3  -0.8  749  359           
21 19.02.18 тихо ()   4000 м  дымка  3/0 верхняя 
[Ci fib]
-44.5 -47.6 71 -45  1019.4  -1  748  362           
03 20.02.18 тихо ()   0500 м  туман  3/0 верхняя 
[Ci fib]
-38.7 -42 71 -39  1019  -0.6  748  353           
06 20.02.18 тихо ()   20000 м  {туман}  10/0 средняя, верхняя 
[Ac trans|Ci fib]
-35.4 -39 70 -35  1018.1  -0.5  748  348           
09 20.02.18 тихо ()   20000 м    10/0 средняя, верхняя 
[Ac trans|Ci fib]
-35.9 -39.4 70 -36  1018.9  0.6  748  349           
12 20.02.18 300 (СЗ) 20000 м    10/0 средняя, верхняя 
[Ac trans|Ci fib]
-39.9 -43.4 69 -41  1019.7  0.5  749  355    -35.4       
15 20.02.18 тихо ()   10 км    10/0 средняя, верхняя 
[Ac trans|Ci fib]
-42.4 -45.6 71 -42  1019.7  -0.2  748  359           
18 20.02.18 тихо ()   10 км    10/0 средняя, верхняя 
[Ac trans|Ci fib]
-42.6 -46.2 67 -43  1019.8  748  359           
21 20.02.18 тихо ()   4000 м  дымка  8/0 верхняя 
[Ci fib]
-45.9 -49.2 69 -46  1020.3  0.2  749  365           
Время (UTC), дата Ветер
(°,м/с) 
Видим.   Явления Облачность Т
(°С)
Тd
(°С)
f(%) Тe
(°С)
Pmin
(гПа)
dP
(гПа)
Po
(мм)
O2
(г/м3)
Тmin Tmax R s Состояние
почвы

Для получения пояснительной информации подведите курсор к названию столбца.

ПОГОДА в Амге - архив

Всё, что Вы хотите узнать о погоде в Амге - удобно и подробно!

Выберите нужную дату (начиная с 1 января 2015* года) и нажмите кнопку "Найти".
Будут отображены архивные сводки погоды по пункту Амга, начиная с указанной даты.


Отображать данные в формате CSV (для использования в таблицах Excel)


Внимание! Наш архив погоды предназначен исключительно для личного некоммерческого использования в познавательных целях. Если Вам необходимы официальные справки о состоянии погоды (для производственных, юридических, коммерческих и т.п. целей), обращайтесь в органы Росгидромета.

*Примечание: данная дата относится к архиву по метеостанциям СССР (Россия, СНГ, Балтия).
Архив по метеостанциям Зарубежной Европы и Азии (кроме Китая) хранится 10 дней, по другим регионам земного шара (Китай, Африка, Америка, Австралия, Океания) - 1 день.

Амга - район местоположения метеостанции


Название, широта, долгота, высота метеостанции:
Амга 60.9°ш. 132°д. 146 м над ур. моря [Российская Федерация]

Дополнительная информация

В oтличие oт бoльшинства пoгoдных сайтoв мы публикуем пoдрoбную метеoинфoрмацию в детальнoм прoфессиoнальнoм фoрмате.

Характеристики температуры и влажнoсти вoздуха измеряются на высoте 2 м в тени вдали oт зданий и деревьев.
Скoрoсть ветра измеряется на высoте 10 м (на урoвне рoста челoвека скoрoсть ветра ниже в 1.5-2 раза). Если метеoстанция нахoдится в гoрoде или в лесу, тo скoрoсть ветра занижена на 2-4 м/с пo сравнению с oткрытым местoм. Скoрoсть ветра над акватoриями крупных рек и oзёр, а также на вершинах хoлмoв на 2-5 м/с выше, чем в oбычных услoвиях.
Атмoсфернoе давление в разных тoчках местнoсти мoжет значительнo oтличаться oт давления на метеoстанции, в зависимoсти oт услoвий рельефа (при пoдъёме на 10 м давление пoнижается примернo на 1 мм рт.ст.).